Regional Weather Roundup
Issued by NWS

Home | Current Version | Previous Version | Text Only | Print | Product List | Glossary Off
Versions: 1 2 3 4 5 6 7 8 9 10 11 12 13 14 15 16 17 18 19 20 21 22 23 24 25 26 27 28 29 30 31 32 33 34 35 36 37 38 39 40 41 42 43 44 45 46 47 48 49 50

000
ASUS43 KLMK 062110
RWRKY
KENTUCKY REGIONAL WEATHER ROUNDUP
NATIONAL WEATHER SERVICE LOUISVILLE KY
500 PM EDT MON JUL 06 2015

NOTE "FAIR" INDICATES FEW OR NO CLOUDS BELOW 12,000 FEET
WITH NO SIGNIFICANT WEATHER AND/OR OBSTRUCTIONS TO VISIBILITY.

KYZ001>023-026-027-061>063-070>075-062200-
WESTERN AND SOUTH CENTRAL KENTUCKY

CITY           SKY/WX    TMP DP  RH WIND       PRES   REMARKS
PADUCAH        PTSUNNY   87  75  67 SW8       30.01S HX  96
HENDERSON      MOSUNNY   86  72  62 SW8       30.00F HX  92
OWENSBORO      MOSUNNY   86  74  67 S14       30.02F HX  94
HOPKINSVILLE   PTSUNNY   86  72  63 S12       30.04F HX  92
BOWLING GREEN  MOSUNNY   87  68  52 SW9G17    30.05F HX  90
GLASGOW        SUNNY     85  69  58 SW7       30.07F
$$

KYZ024-025-028>034-038-045-046-053-062200-
NORTH CENTRAL KENTUCKY

CITY           SKY/WX    TMP DP  RH WIND       PRES   REMARKS
LOUISVILLE/SDF PTSUNNY   88  69  53 S14       30.02F HX  92
LOUISVILLE/LOU PTSUNNY   85  68  56 SW8       30.03F
FORT KNOX      MOSUNNY   85  71  62 VRB7      30.03F HX  91
$$

KYZ035>037-039>044-047>052-055>060-089>105-062200-
NORTHEAST KENTUCKY

CITY           SKY/WX    TMP DP  RH WIND       PRES   REMARKS
LEXINGTON      SUNNY     84  66  54 SW12      30.07F
COVINGTON      MOSUNNY   83  66  56 SW5       30.04F
FRANKFORT      SUNNY     84  65  52 SW9       30.04F
$$

KYZ054-064>069-076>088-106>120-062200-
SOUTHEAST KENTUCKY

CITY           SKY/WX    TMP DP  RH WIND       PRES   REMARKS
JACKSON        MOSUNNY   81  67  62 CALM      30.11F
LONDON         MOSUNNY   83  63  50 W8        30.11F
SOMERSET       SUNNY     81  64  57 W9        30.10F
MIDDLESBORO    MOSUNNY   85  66  53 W6        30.11F
MONTICELLO     PTCLDY    85  69  58 SW3       30.12F
$$



USA.gov is the U.S. government's official web portal to all federal, state and local government web resources and services.